TimeEDT,TemperatureF,Dew PointF,Humidity,Sea Level PressureIn,VisibilityMPH,Wind Direction,Wind SpeedMPH,Gust SpeedMPH,PrecipitationIn,Events,Conditions,WindDirDegrees,DateUTC
12:15 AM,31.8,19.2,60,30.07,10.0,ESE,3.5,-,N/A,,Clear,120,2013-03-31 04:15:00
12:35 AM,30.7,18.3,60,30.07,10.0,Calm,Calm,-,N/A,,Clear,0,2013-03-31 04:35:00
12:55 AM,29.8,18.0,61,30.08,10.0,ESE,4.6,-,N/A,,Clear,120,2013-03-31 04:55:00
1:15 AM,29.3,19.2,66,30.07,10.0,ESE,3.5,-,N/A,,Clear,120,2013-03-31 05:15:00
1:35 AM,29.3,18.5,64,30.08,10.0,SSE,4.6,-,N/A,,Clear,160,2013-03-31 05:35:00
1:55 AM,29.3,19.2,66,30.08,10.0,SSE,4.6,-,N/A,,Clear,150,2013-03-31 05:55:00
2:15 AM,29.5,18.1,63,30.07,10.0,SE,3.5,-,N/A,,Clear,140,2013-03-31 06:15:00
2:35 AM,29.3,19.2,66,30.07,10.0,SE,3.5,-,N/A,,Clear,130,2013-03-31 06:35:00
2:55 AM,29.3,19.8,68,30.06,10.0,SE,4.6,-,N/A,,Clear,130,2013-03-31 06:55:00
3:15 AM,29.3,19.6,67,30.06,10.0,ESE,3.5,-,N/A,,Clear,120,2013-03-31 07:15:00
3:35 AM,29.3,18.9,65,30.05,10.0,SE,4.6,-,N/A,,Clear,140,2013-03-31 07:35:00
3:55 AM,29.3,18.3,64,30.05,10.0,SE,4.6,-,N/A,,Clear,140,2013-03-31 07:55:00
4:15 AM,29.3,18.5,64,30.05,10.0,SSE,3.5,-,N/A,,Clear,150,2013-03-31 08:15:00
4:35 AM,29.3,19.6,67,30.04,10.0,ESE,3.5,-,N/A,,Clear,110,2013-03-31 08:35:00
4:55 AM,29.3,18.9,65,30.03,10.0,Calm,Calm,-,N/A,,Clear,0,2013-03-31 08:55:00
5:15 AM,29.3,18.9,65,30.03,10.0,SE,4.6,-,N/A,,Clear,140,2013-03-31 09:15:00
5:35 AM,29.3,18.5,64,30.03,10.0,SE,4.6,-,N/A,,Clear,140,2013-03-31 09:35:00
5:55 AM,29.3,18.5,64,30.02,10.0,ESE,4.6,-,N/A,,Clear,120,2013-03-31 09:55:00
6:15 AM,29.3,18.3,64,30.02,10.0,SE,3.5,-,N/A,,Clear,130,2013-03-31 10:15:00
6:35 AM,29.3,19.2,66,30.01,10.0,SE,4.6,-,N/A,,Clear,130,2013-03-31 10:35:00
6:55 AM,29.3,19.2,66,30.01,10.0,SE,4.6,-,N/A,,Clear,130,2013-03-31 10:55:00
7:15 AM,29.7,18.1,62,30.01,10.0,SE,4.6,-,N/A,,Clear,130,2013-03-31 11:15:00
7:35 AM,29.8,18.5,63,30.01,10.0,SE,4.6,-,N/A,,Clear,130,2013-03-31 11:35:00
7:55 AM,34.2,22.1,61,30.00,10.0,SE,3.5,-,N/A,,Clear,140,2013-03-31 11:55:00
8:15 AM,36.7,22.3,56,30.00,10.0,Calm,Calm,-,N/A,,Clear,0,2013-03-31 12:15:00
8:35 AM,39.2,18.3,43,29.99,10.0,South,3.5,-,N/A,,Clear,180,2013-03-31 12:35:00
8:55 AM,40.3,19.6,44,29.98,10.0,Calm,Calm,-,N/A,,Clear,0,2013-03-31 12:55:00
9:15 AM,42.8,18.9,38,29.97,10.0,South,5.8,-,N/A,,Clear,190,2013-03-31 13:15:00
9:35 AM,46.8,18.9,33,29.97,10.0,South,6.9,-,N/A,,Clear,190,2013-03-31 13:35:00
9:55 AM,48.9,19.8,32,29.97,10.0,South,8.1,-,N/A,,Clear,180,2013-03-31 13:55:00
10:15 AM,46.9,18.1,32,29.96,10.0,South,5.8,17.3,N/A,,Clear,180,2013-03-31 14:15:00
10:55 AM,49.3,18.5,30,29.95,10.0,South,9.2,17.3,N/A,,Clear,190,2013-03-31 14:55:00
11:15 AM,51.8,20.1,29,29.95,10.0,South,10.4,-,N/A,,Clear,190,2013-03-31 15:15:00
11:35 AM,54.5,21.2,27,29.93,10.0,South,9.2,19.6,N/A,,Clear,180,2013-03-31 15:35:00
11:55 AM,54.5,19.8,26,29.92,10.0,South,8.1,20.7,N/A,,Clear,180,2013-03-31 15:55:00
12:15 PM,54.7,18.9,25,29.91,10.0,South,11.5,20.7,N/A,,Clear,180,2013-03-31 16:15:00
12:35 PM,54.5,18.3,24,29.90,10.0,South,11.5,20.7,N/A,,Clear,190,2013-03-31 16:35:00
12:55 PM,56.8,19.6,23,29.89,10.0,South,15.0,24.2,N/A,,Clear,190,2013-03-31 16:55:00
1:15 PM,56.8,19.4,23,29.88,10.0,South,16.1,23.0,N/A,,Clear,170,2013-03-31 17:15:00
1:35 PM,56.8,19.9,24,29.87,10.0,South,15.0,23.0,N/A,,Clear,170,2013-03-31 17:35:00
1:55 PM,54.5,18.3,24,29.85,10.0,South,10.4,25.3,N/A,,Mostly Cloudy,190,2013-03-31 17:55:00
2:15 PM,56.8,19.9,24,29.85,10.0,South,13.8,26.5,N/A,,Scattered Clouds,190,2013-03-31 18:15:00
2:35 PM,56.8,19.0,23,29.84,10.0,South,17.3,26.5,N/A,,Clear,180,2013-03-31 18:35:00
2:55 PM,56.8,18.9,23,29.82,10.0,South,13.8,26.5,N/A,,Scattered Clouds,180,2013-03-31 18:55:00
3:15 PM,55.4,19.0,24,29.82,10.0,South,13.8,27.6,N/A,,Scattered Clouds,180,2013-03-31 19:15:00
3:35 PM,56.5,19.9,24,29.80,10.0,South,13.8,24.2,N/A,,Overcast,170,2013-03-31 19:35:00
3:55 PM,56.7,20.8,25,29.79,10.0,South,16.1,26.5,N/A,,Scattered Clouds,170,2013-03-31 19:55:00
4:15 PM,56.1,20.5,25,29.78,10.0,South,12.7,24.2,N/A,,Clear,180,2013-03-31 20:15:00
4:35 PM,55.2,20.3,26,29.77,7.0,South,11.5,20.7,N/A,,Mostly Cloudy,180,2013-03-31 20:35:00
4:55 PM,54.5,20.8,27,29.77,10.0,South,11.5,17.3,N/A,,Mostly Cloudy,170,2013-03-31 20:55:00
5:15 PM,55.0,21.7,27,29.76,10.0,South,4.6,-,N/A,,Mostly Cloudy,190,2013-03-31 21:15:00
5:35 PM,54.5,21.7,28,29.76,10.0,South,4.6,-,N/A,,Overcast,190,2013-03-31 21:35:00
5:55 PM,54.5,21.9,28,29.76,10.0,South,13.8,24.2,N/A,,Overcast,170,2013-03-31 21:55:00
6:15 PM,54.5,25.5,33,29.76,10.0,SSW,10.4,28.8,N/A,,Overcast,200,2013-03-31 22:15:00
6:35 PM,52.9,28.8,40,29.77,10.0,SSW,8.1,16.1,N/A,,Light Drizzle,210,2013-03-31 22:35:00
6:55 PM,54.5,28.8,37,29.77,10.0,South,9.2,17.3,N/A,,Light Drizzle,180,2013-03-31 22:55:00
7:15 PM,50.7,31.6,48,29.77,10.0,SSW,10.4,18.4,N/A,,Drizzle,210,2013-03-31 23:15:00
7:35 PM,49.3,35.4,59,29.76,10.0,South,12.7,24.2,N/A,Rain,Rain,170,2013-03-31 23:35:00
7:55 PM,49.3,33.1,54,29.75,10.0,South,11.5,25.3,N/A,,Drizzle,180,2013-03-31 23:55:00
8:15 PM,49.3,32.0,51,29.73,10.0,SSE,11.5,21.9,N/A,,Light Drizzle,160,2013-04-01 00:15:00
8:35 PM,49.3,32.0,51,29.72,10.0,SSE,6.9,-,N/A,,Overcast,160,2013-04-01 00:35:00
8:55 PM,49.3,30.6,49,29.72,10.0,SSE,6.9,-,N/A,,Overcast,160,2013-04-01 00:55:00
9:15 PM,51.1,29.8,44,29.72,10.0,South,10.4,18.4,N/A,,Overcast,170,2013-04-01 01:15:00
9:35 PM,51.8,28.0,40,29.71,10.0,South,10.4,20.7,N/A,,Overcast,180,2013-04-01 01:35:00
9:55 PM,51.8,29.1,42,29.71,10.0,SSW,9.2,21.9,N/A,,Overcast,200,2013-04-01 01:55:00
10:15 PM,50.9,30.7,46,29.71,10.0,South,10.4,21.9,N/A,,Overcast,180,2013-04-01 02:15:00
10:35 PM,49.3,32.5,53,29.71,10.0,South,18.4,29.9,N/A,,Light Drizzle,190,2013-04-01 02:35:00
10:55 PM,49.3,36.3,61,29.71,10.0,South,13.8,28.8,N/A,,Drizzle,180,2013-04-01 02:55:00
11:15 PM,46.8,36.5,67,29.71,10.0,South,13.8,25.3,N/A,Rain,Light Rain,190,2013-04-01 03:15:00
11:35 PM,44.2,36.9,75,29.70,10.0,South,10.4,-,N/A,Rain,Light Rain,180,2013-04-01 03:35:00
11:55 PM,43.0,37.6,81,29.69,7.0,South,8.1,-,N/A,Rain,Light Rain,180,2013-04-01 03:55:00